Flag for Bosnia-Herzegovina Weather past 2 weeks in Mostar, Bosnia-Herzegovina

Now
70 °F

Sunny.


Feels Like: 70 °F
Forecast: 57 / 84 °F
Wind: 1 mph from North

Location: Mostar

Current Time: May 6, 2015 at 10:30:50 AM

Latest Report: May 6, 2015 at 10:00 AM


Visibility: 10 mi

Pressure: 29.92 "Hg

Humidity: 73%

Dew point: 61 °F

Location of MostarLocation

Historic Weather in Mostar — Graph

°F

Mostar temperature yesterday

Maximum temperature yesterday: 86 °F (at 3:00 PM)
Minimum temperature yesterday: 54 °F (at 6:00 AM)
Average temperature yesterday: 72 °F

Past Weeks' High & Low Weather Summary

 TemperatureHumidityPressure
High86 °F (May 5, 3:00 PM)100% (Apr 25, 6:00 AM)30.12 "Hg (Apr 25, 6:00 AM)
Low43 °F (Apr 23, 6:00 AM)16% (Apr 21, 3:30 PM)29.62 "Hg (Apr 28, 4:30 AM)
Average62 °F63%29.96 "Hg
* Reported Apr 21 9:00 AM — May 6 9:30 AM, Mostar, Weather by CustomWeather, © 2015

Note: Actual official high and low records may vary slightly from our data, if they occured in-between our weather recording intervals... More about our weather records

Advertising

Mostar weather history for previous 24 hours

 ConditionsComfort  
Time TempWeatherWind HumidityBarometerVisibility
9:30 AM
Wed, May 6
68 °FPassing clouds.3 mph73%29.92 "HgN/A
9:00 AM66 °FPassing clouds.5 mph78%29.92 "HgN/A
8:30 AM64 °FSunny.1 mph83%29.92 "Hg10 mi
8:00 AM63 °FSunny.1 mph88%29.92 "Hg10 mi
7:30 AM63 °FSunny.1 mph88%29.92 "Hg10 mi
7:00 AM59 °FSunny.1 mph94%29.92 "Hg10 mi
6:00 AM57 °FClear.2 mph94%29.89 "Hg10 mi
5:30 AM57 °FClear.1 mph94%29.89 "Hg10 mi
4:00 AM59 °FPassing clouds.3 mph94%29.89 "HgN/A
3:00 AM61 °FClear.1 mph88%29.92 "HgN/A
2:00 AM61 °FPassing clouds.3 mph88%29.92 "HgN/A
1:00 AM64 °FClear.3 mph83%29.92 "Hg10 mi
12:00 AM66 °FClear.2 mph78%29.92 "Hg10 mi
11:30 PM
Tue, May 5
66 °FClear.2 mph78%29.92 "Hg10 mi
11:00 PM68 °FClear.3 mph73%29.92 "Hg10 mi
10:30 PM66 °FClear.1 mph78%29.92 "Hg10 mi
10:00 PM72 °FClear.2 mph65%29.92 "Hg10 mi
9:30 PM72 °FClear.2 mph65%29.89 "Hg10 mi
9:00 PM72 °FClear.6 mph65%29.89 "Hg10 mi
8:30 PM75 °FPassing clouds.6 mph61%29.89 "HgN/A
8:00 PM77 °FSunny.5 mph57%29.89 "Hg10 mi
7:30 PM77 °FSunny.6 mph61%29.89 "Hg10 mi
7:00 PM81 °FSunny.3 mph48%29.89 "Hg10 mi
6:30 PM84 °FPassing clouds.3 mph43%29.89 "HgN/A
6:00 PM84 °FPassing clouds.3 mph40%29.89 "HgN/A
5:30 PM84 °FSunny.5 mph43%29.89 "Hg10 mi
5:00 PM84 °FSunny.5 mph43%29.89 "Hg10 mi
4:30 PM84 °FSunny.2 mph40%29.89 "Hg10 mi
4:00 PM84 °FSunny.5 mph43%29.89 "Hg10 mi
3:30 PM86 °FPassing clouds.5 mph38%29.92 "HgN/A
3:00 PM86 °FPassing clouds.3 mph38%29.92 "HgN/A
2:30 PM84 °FSunny.2 mph40%29.92 "Hg10 mi
2:00 PM84 °FPassing clouds.7 mph40%29.95 "HgN/A
1:30 PM82 °FPassing clouds.3 mph42%29.95 "HgN/A
1:00 PM82 °FSunny.3 mph42%29.95 "Hg10 mi
12:30 PM82 °FSunny.2 mph40%29.95 "Hg10 mi
12:00 PM79 °FSunny.2 mph48%29.98 "Hg10 mi
11:30 AM77 °FSunny.2 mph57%29.98 "Hg10 mi
11:00 AM73 °FSunny.2 mph61%29.98 "Hg10 mi
10:30 AM73 °FSunny.2 mph61%29.98 "Hg10 mi
10:00 AM72 °FSunny.2 mph65%29.98 "Hg10 mi
Weather by CustomWeather, © 2015

See weather overviewHow to use our weather pages